Tatamy

Members
  • Content Count

    564
  • Joined

  • Last visited

About Tatamy

  • Rank
    Bethlehem, PA is 80 miles west of NYC / Skywarn Spotter

Contact Methods

  • Website URL
    https://dashboard.ambientweather.net/devices/public/d01dd44a5ad9166fed9b281faaae705c
  • Yahoo

Profile Information

  • Four Letter Airport Code For Weather Obs (Such as KDCA)
    kabe
  • Gender
    Male
  • Location:
    Bethlehem, PA - Elevation 400'
  • Interests
    I have had a life long interest in the weather and all of the surprises that it brings.

Recent Profile Visitors

The recent visitors block is disabled and is not being shown to other users.

  1. Heavy rain with thunder out here. This batch means business.
  2. I am posting the 1PM Obs from Mount Holly. This is going to be representative of the weather of the next 2-3 hours in the NYC area. I am highlighted the calm winds at the observing stations in Bucks Cty near me where the center was at that time. REGIONAL WEATHER ROUNDUP NATIONAL WEATHER SERVICE MOUNT HOLLY NJ 100 PM EDT TUE AUG 04 2020 NOTE: "FAIR" INDICATES FEW OR NO CLOUDS BELOW 12,000 FEET WITH NO SIGNIFICANT WEATHER AND/OR OBSTRUCTIONS TO VISIBILITY. * = STATION DOES NOT REPORT PRECIPITATION (E.G. RAIN, SNOW, ETC.) OR FOG. NJZ015>026-041800- SOUTHERN NEW JERSEY CITY SKY/WX TMP DP RH WIND PRES REMARKS POMONA CLOUDY 77 71 82 S17G31 29.48F WILDWOOD* N/A N/A N/A N/A MISG N/A MILLVILLE CLOUDY 73 65 75 W35G54 29.59R WRIGHTSTOWN LGT RAIN 70 70 100 SE17G29 29.45F TRENTON HVY RAIN 71 70 96 S20G31 29.45F VSB 1 $$ NJZ001>014-041800- NORTHERN NEW JERSEY CITY SKY/WX TMP DP RH WIND PRES REMARKS SUSSEX HVY RAIN 73 71 93 NE12G23 29.56F VSB 1/2 ANDOVER* N/A 75 71 87 VRB7G24 29.53F MORRISTOWN RAIN 81 81 100 SE29G59 29.55F FOG HX 91 NEWARK HVY RAIN 74 73 97 SE29G48 29.51F FOG TETERBORO RAIN 78 74 87 SE29G45 29.55F FOG CALDWELL LGT RAIN 79 73 82 SE25G43 29.54F SOMERVILLE LGT RAIN 74 71 91 SE14G38 29.46F FOG ALLAIRE* CLOUDY 73 32 22 SE31G43 29.54F HAZE TOMS RIVER* LGT RAIN 71 69 93 S23G37 29.49F FOG $$ PAZ043-044-047-054-055-060>062-066>071-041800- EASTERN PENNSYLVANIA CITY SKY/WX TMP DP RH WIND PRES REMARKS PHILADELPHIA LGT RAIN 73 68 84 W26G43 29.49R NORTH PHILA CLOUDY 71 71 100 S8G20 29.44F BLUE BELL* LGT RAIN 71 71 98 SW15G26 29.45F FOG DOYLESTOWN LGT RAIN 72 69 90 VRB6 29.44F QUAKERTOWN* PTSUNNY 72 72 100 CALM 29.46F FOG PERKASIE* LGT RAIN 70 70 100 SE3 29.46F POTTSTOWN LGT RAIN 67 64 90 NW20G38 29.53R FOG LANCASTER LGT RAIN 67 64 90 N17G26 29.62F COATESVILLE HVY RAIN 66 66 100 NW26G40 29.61R WEST CHESTER LGT RAIN 68 64 88 NW18G41 29.53R READING HVY RAIN 68 67 96 N24G37 29.58F ALLENTOWN HVY RAIN 69 67 93 N26G39 29.47F VSB 1 QN CITY/ALNTWN HVY RAIN 68 68 100 NW24G36 29.48F MOUNT POCONO HVY RAIN 64 63 96 NW18G26 29.63F VSB 1 HAZLETON HVY RAIN 64 63 94 NW10G20 29.76F LEHIGHTON HVY RAIN 68 68 100 NW14G26 29.60F VSB 1 WILKES BARRE HVY RAIN 69 66 90 N12G20 29.72F FOG $$ DEZALL-MDZ008-012-015-019-020-041800- DELAWARE AND EASTERN MARYLAND CITY SKY/WX TMP DP RH WIND PRES REMARKS WILMINGTON LGT RAIN 71 64 78 NW28G46 29.59R DOVER CLOUDY 73 68 83 SW18G36 29.71R CHESWOLD MOSUNNY 72 68 88 W18G25 29.70R GEORGETOWN PTSUNNY 77 68 73 W14G28 29.80R EASTON PTSUNNY 77 70 78 W12G24 29.82R STEVENSVILLE PTSUNNY 77 72 83 W16G26 29.78R ABERDEEN CLOUDY 72 68 88 W13G20 29.70 PATUXENT PTSUNNY 82 73 74 W21G26 29.83 OCEAN CITY CLOUDY 79 68 69 W16G28 29.84R WALLOPS ISLAND PTSUNNY 81 70 69 W13G25 29.86R SALISBURY PTSUNNY 81 68 64 W17G26 29.83R $$ PAZ001-021-NYZ056-072-MDZ011-DCZ001-041800- OTHER NEARBY LOCATIONS CITY SKY/WX TMP DP RH WIND PRES REMARKS HARRISBURG PTSUNNY 74 68 81 NW15G26 29.69S STATE COLLEGE PTSUNNY 72 68 88 NE7 29.81F WILLIAMSPORT LGT RAIN 70 67 90 W8 29.73F BINGHAMTON RAIN 66 65 96 E10 29.86F FOG NEW YORK CITY LGT RAIN 76 73 91 SE21G43 29.60 FOG BALTIMORE PTSUNNY 77 69 76 W15 29.75R WASHINGTON DC PTSUNNY 78 69 73 W15G23 29.80R
  3. Winds have now switched over to the west and north west as the calm center moves away.
  4. Believe it or not winds here are actually calm as the center passes nearby. Next up for us is that burst of strong winds from west and north west as the storm moves away.
  5. Wrong - there is a tornado warned storm in Atlantic Cty right now. I am watching live coverage of it.
  6. Folks in Warren and Hunterdon Cty should pay close attention to the tornado warned cell in Bucks Cty.
  7. Tornado Warning for northern Bucks Cty, PA. This is adjacent to Hunterdon Cty, NJ. Tornado Warning PAC017-041245- /O.NEW.KPHI.TO.W.0018.200804T1219Z-200804T1245Z/ BULLETIN - EAS ACTIVATION REQUESTED Tornado Warning National Weather Service Mount Holly NJ 819 AM EDT Tue Aug 4 2020 The National Weather Service in Mount Holly NJ has issued a * Tornado Warning for... Northwestern Bucks County in southeastern Pennsylvania... * Until 845 AM EDT. * At 819 AM EDT, a severe thunderstorm capable of producing a tornado was located over Dublin, or 22 miles north of Philadelphia, moving north at 35 mph. HAZARD...Tornado. SOURCE...Radar indicated rotation. IMPACT...Flying debris will be dangerous to those caught without shelter. Mobile homes will be damaged or destroyed. Damage to roofs, windows, and vehicles will occur. Tree damage is likely. * Locations impacted include... Bedminster, Chalfont, Tinicum, Dublin, Ferndale, Riegelsville, Pleasant Valley, Revere, Ottsville, Pipersville, Springtown, New Britain and Richlandtown.